Location: Arrakis Observatory
(44.1122°N, 95.7153°W)
Time: 08:54:16
(UTC-05:00)

Daily predictions for brighter satellites

Satellite Brightness Start Highest point End
(mag) Time Altitude Azimuth Time Altitude Azimuth Time Altitude Azimuth
FengYun 1-2 T 4.3 20:05:01 10° SSE 20:10:31 63° ENE 20:16:06 10° N
Cosmos 1605 Rocket 4.1 20:05:21 10° S 20:11:28 58° E 20:17:43 10° NNE
Meteor 1-24 Rocket 4.1 20:10:57 10° NNW 20:16:27 71° W 20:22:09 10° S
CZ-3B DEB 3.2 20:09:41 10° WSW 20:21:16 72° NW 20:26:26 10° NE
FREGAT/IRIS 3.5 20:18:37 10° S 20:21:37 54° W 20:24:39 10° NNW
COSMOS 2487 2.9 20:18:42 10° N 20:22:08 43° ENE 20:25:33 10° SE
Cosmos 2123 Rocket 4.1 20:18:21 10° N 20:24:43 86° W 20:30:59 10° S
Cosmos 1271 Rocket 3.9 20:22:16 10° SE 20:25:29 23° E 20:28:42 10° NE
Cosmos 1758 3.4 20:22:51 10° S 20:26:43 52° E 20:30:37 10° NNE
Cosmos 1818 3.7 20:21:47 10° NW 20:27:16 80° WSW 20:32:40 10° SSE
Cosmos 1269 Rocket 4.1 20:22:27 10° NNW 20:27:43 63° ENE 20:32:56 10° SSE
Cosmos 372 Rocket 4.2 20:25:41 10° S 20:30:31 45° ESE 20:35:26 10° NNE
Cosmos 1674 3.2 20:27:48 10° N 20:31:21 37° ENE 20:34:55 10° SSE
Cosmos 158 Rocket 4.1 20:27:19 10° NNW 20:32:23 58° ENE 20:37:34 10° SE
Cosmos 1953 2.4 20:29:04 10° S 20:33:03 57° E 20:37:03 10° NNE
Lacrosse 5 2.7 20:29:16 10° WSW 20:34:12 51° NW 20:39:10 10° NE
Cosmos 1766 4.4 20:31:28 10° SSW 20:35:13 49° W 20:39:02 10° N
Cosmos 1408 Rocket 3.8 20:31:59 10° N 20:36:20 48° ENE 20:40:39 10° SSE
USA 215 4.4 20:32:19 10° ENE 20:36:52 20° ESE 20:41:24 10° SSE
Resurs 1-3 3.6 20:33:50 10° SSE 20:38:12 71° ENE 20:42:34 10° N
Helios 1B rocket 3.1 20:39:54 10° NNE 20:43:40 33° E 20:47:23 10° SSE
Meteor 1-4 Rocket 2.3 20:40:14 10° S 20:43:42 84° E 20:47:12 10° NNE
Cosmos 1939 Rocket 4.1 20:42:56 15° ESE 20:45:23 26° ENE 20:48:51 10° NNE
Lacrosse 5 rocket 1.1 20:47:45 10° NW 20:51:43 71° NE 20:54:09 21° ESE
Lacrosse 4 Rocket 4.4 20:50:27 10° WNW 20:52:35 14° NW 20:54:42 10° N
Spot 2 Rocket 3.7 20:49:29 10° S 20:54:35 75° WSW 20:59:44 10° NNW
Cosmos 2098 Rocket 4.4 20:48:31 10° S 20:55:55 87° E 21:03:31 10° N
Cosmos 1076 Rocket 3.7 20:52:01 10° NNW 20:56:16 72° W 21:00:28 10° S
Cosmos 2061 Rocket 4.3 20:50:30 10° SSE 20:56:35 48° E 21:02:44 10° NNE
Cosmos 1544 4.0 20:53:05 10° SSW 20:56:38 52° W 21:00:16 10° N
SWAS 4.4 20:53:04 10° SSW 20:57:19 70° ESE 21:01:39 10° NNE
Cosmos 2369 Rocket 4.1 21:01:47 11° ENE 21:01:47 11° ENE 21:02:18 10° ENE
CZ-2D R/B 3.4 20:56:11 10° S 21:00:03 74° WSW 21:03:58 10° NNW
Timation 2 Rocket 3.9 20:53:44 10° NNW 21:00:06 89° WSW 21:06:10 10° SSE
Cosmos 1459 Rocket 4.0 20:55:08 10° SSE 21:01:12 56° E 21:07:13 10° NNE
Cosmos 1867 3.7 20:59:37 10° SW 21:05:04 77° NW 21:10:34 10° NNE
Helios 1A 2.9 21:03:03 10° SSE 21:07:12 82° ENE 21:11:26 10° NNW
Cosmos 1184 Rocket 3.4 21:04:35 10° N 21:07:47 37° ENE 21:08:25 34° ESE
ALOS 4.1 21:05:14 10° SSW 21:09:24 31° W 21:13:34 10° NNW
Cosmos 2173 Rocket 4.0 21:03:24 10° S 21:09:29 64° E 21:15:42 10° NNE
Cosmos 1833 Rocket 3.0 21:04:54 10° NNW 21:10:29 67° WSW 21:16:03 10° SSE
USA 267 4.4 21:06:11 12° ENE 21:11:26 33° NNE 21:17:06 10° NW
Envisat 3.0 21:08:43 16° SSE 21:12:46 63° ENE 21:17:48 10° N
Cosmos 1733 3.2 21:16:12 10° S 21:20:04 84° W 21:23:59 10° N
Cosmos 1470 2.9 21:18:04 10° SSW 21:22:03 76° W 21:26:02 10° N
Cosmos 2278 Rocket 4.2 21:17:24 10° WSW 21:22:21 30° NW 21:27:19 10° N
SeaSat 1 4.1 21:18:11 10° S 21:22:34 32° WSW 21:27:00 10° NW
Cosmos 1766 Rocket 4.4 21:18:56 10° NNW 21:23:18 52° W 21:27:38 10° S
Geosat 3.9 21:18:56 10° NNE 21:23:59 84° ESE 21:29:01 10° SSW
ATLAS 5 CENTAUR R/B 1.9 21:19:36 10° SW 21:24:19 79° NW 21:29:31 10° NE
ERS-1 Rocket 3.3 21:23:16 32° ESE 21:25:03 45° ENE 21:29:50 10° N
Cosmos-2242 3.3 21:22:00 10° SSW 21:26:13 67° W 21:30:29 10° N
Cosmos 1356 Rocket 3.3 21:25:33 10° N 21:29:37 59° ENE 21:30:26 48° SE
GP-B 3.7 21:25:40 10° SSW 21:30:01 56° W 21:34:24 10° N
USA 186 3.2 21:29:39 19° SW 21:30:22 22° W 21:32:12 10° NW
H-2A R/B 3.7 21:31:01 18° ENE 21:31:08 18° ENE 21:34:34 10° NNE
CZ-3 Stage 3 4.1 21:00:10 10° W 21:33:17 43° SSW 21:37:49 25° SSE
CZ-4B DEB 3.3 21:33:45 36° SSW 21:34:43 53° W 21:37:46 10° NNW
Cosmos 1340 Rocket 3.5 21:31:25 10° NNW 21:35:21 54° W 21:38:08 18° S
BREEZE-M DEB (TANK) 2.6 21:36:12 10° WNW 21:38:17 53° N 21:38:17 53° N
Resurs 01 Rocket 4.0 21:35:55 10° SSW 21:39:25 23° W 21:42:58 10° NW
Cosmos 2016 Rocket 3.9 21:35:27 10° S 21:41:40 81° E 21:47:50 10° N
Cosmos 2221 4.2 21:45:55 22° NE 21:45:55 22° NE 21:47:47 10° NNE
ISS -3.4 21:42:19 10° WSW 21:45:27 62° NW 21:45:27 62° NW
Meteor 1-29 3.9 21:43:13 10° N 21:46:37 49° WNW 21:49:59 10° SSW
MetOp-A 4.3 21:49:16 47° ESE 21:50:06 52° ENE 21:55:18 10° N
Cosmos 2082 Rocket 4.0 21:45:47 10° NW 21:50:34 29° WSW 21:55:20 10° SSW
Cosmos 1725 Rocket 3.9 21:47:24 23° S 21:51:22 67° E 21:57:31 10° NNE
Cosmos 1743 Rocket 4.3 21:50:08 10° NNW 21:54:27 51° W 21:56:52 24° SSW
H-2A R/B 4.3 21:57:07 13° NE 21:57:07 13° NE 21:58:00 10° NNE
ARGOS 3.6 21:55:16 42° ENE 21:55:26 42° ENE 22:00:29 10° N
Cosmos 1500 Rocket 3.7 21:51:09 10° NNW 21:55:28 69° W 21:56:35 46° SSW
SL-14 R/B 3.5 21:54:07 10° NNW 21:57:57 64° W 21:58:17 60° SW
YAOGAN 6 2.9 21:58:47 66° NNW 21:58:47 66° NNW 22:02:02 10° NNW
Cosmos 2058 3.0 21:57:55 10° N 22:01:37 67° NNE 22:01:37 67° NNE
Meteor 1-11 4.2 21:56:32 10° NNW 22:02:09 82° W 22:04:09 42° S
Meteor 1-16 Rocket 4.4 21:58:16 10° SSW 22:04:08 76° WNW 22:10:06 10° N
Cosmos 2251 Rocket 4.0 22:02:13 10° NNW 22:07:28 59° WSW 22:09:14 39° SSW
Cosmos 2346 Rocket 4.5 22:05:23 10° N 22:11:33 60° E 22:12:03 58° E
Tsikada Rocket 3.9 22:05:41 10° N 22:11:56 86° W 22:14:02 45° S
SPOT 1/Viking Rocket 4.1 22:15:27 45° NE 22:15:27 45° NE 22:19:48 10° N
BREEZE-M DEB (TANK) 3.9 22:11:43 10° WSW 22:16:05 84° SSE 22:34:07 10° ENE
Lacrosse 5 4.1 22:14:19 10° WNW 22:18:11 21° NNW 22:22:01 10° NE
Cosmos 2151 3.6 22:14:27 10° NNW 22:18:35 51° W 22:18:38 51° W
USA 215 3.1 22:14:02 10° NE 22:20:35 75° SE 22:27:06 10° SW
SPOT 5 3.0 22:22:08 80° ENE 22:22:08 80° ENE 22:27:23 10° NNW
Meteor 2-1 Rocket 4.2 22:25:50 59° SSW 22:26:57 81° W 22:32:38 10° N
Terra 3.6 22:31:05 22° NNE 22:31:05 22° NNE 22:33:12 10° N
Lacrosse 5 rocket 3.8 22:28:20 10° W 22:29:53 14° WSW 22:29:53 14° WSW
Cosmos 1626 4.1 22:27:49 10° NNW 22:29:33 26° NNW 22:29:33 26° NNW
CZ-3B DEB 3.6 22:28:06 10° WNW 22:33:22 23° NNW 22:35:01 19° NNE
Cosmos 2369 Rocket 2.5 22:43:23 61° N 22:43:23 61° N 22:48:05 10° NNE
USA 245 4.5 22:47:22 70° WSW 22:47:24 70° W 22:53:44 10° NNW
USA 267 3.3 22:53:31 65° NE 22:53:46 65° NNE 23:00:14 10° NW
Cosmos 2233 Rocket 4.2 22:54:44 61° WSW 22:55:18 65° W 23:01:25 10° N
Cosmos 2227 Rocket 4.4 22:53:50 10° N 22:56:18 14° NE 22:56:18 14° NE
Cosmos 1943 Rocket 4.1 23:10:19 21° NNE 23:10:19 21° NNE 23:12:03 10° NNE
ATLAS 5 CENTAUR R/B 4.5 23:06:27 10° WNW 23:09:56 19° NNW 23:13:40 10° NNE
H-2A R/B 3.1 23:11:38 45° NNW 23:11:38 45° NNW 23:15:17 10° NNW
CZ-4C R/B 3.8 23:33:39 30° N 23:33:39 30° N 23:37:06 10° NNE
ATLAS 3B R/B 4.3 23:54:09 25° NE 23:54:09 25° NE 23:56:46 10° NE
